FW4170 Weather Reports


Display with metric or nautical units.
time (UTC)temp
F
wind
direction
speed
MPH
gust
MPH
rain 1hr
in
rain 24hr
in
rain mn
in
humidity
%
barometer
mb
20260504180005 64 306 0.0 2.0 0.00 0.00 0.00 24 1016.9
20260504175526 64 180 0.0 2.0 0.00 0.00 0.00 23 1016.8
20260504175005 65 180 1.0 4.0 0.00 0.00 0.00 22 1016.9
20260504174505 65 180 3.0 4.0 0.00 0.00 0.00 22 1016.7
20260504174005 66 188 3.0 5.0 0.00 0.00 0.00 22 1016.7
20260504173505 66 201 3.0 5.0 0.00 0.00 0.00 22 1016.7
20260504173005 66 203 2.0 5.0 0.00 0.00 0.00 21 1016.6
20260504172505 66 187 3.0 6.0 0.00 0.00 0.00 21 1016.6
20260504172005 67 202 5.0 10.0 0.00 0.00 0.00 21 1016.5
20260504171505 67 212 5.0 10.0 0.00 0.00 0.00 21 1016.5
20260504171006 67 196 6.0 10.0 0.00 0.00 0.00 21 1016.5
20260504170505 67 194 7.0 10.0 0.00 0.00 0.00 21 1016.4
20260504151026 71 189 10.0 15.0 0.00 0.00 0.00 15 1016.5
20260504150505 71 176 9.0 15.0 0.00 0.00 0.00 15 1016.6
20260504141005 72 206 9.0 16.0 0.00 0.00 0.00 20 1016.9
20260504140504 72 196 9.0 15.0 0.00 0.00 0.00 20 1016.9
20260504130505 72 161 7.0 12.0 0.00 0.00 0.00 15 1017.2
20260504110504 69 354 3.0 6.0 0.00 0.00 0.00 23 1018.5
20260504100503 66 269 2.0 6.0 0.00 0.00 0.00 30 1019.3
20260504082003 58 349 2.0 5.0 0.00 0.00 0.00 44 1020.4
20260504081503 58 355 1.0 2.0 0.00 0.00 0.00 47 1020.4
20260504081024 57 202 1.0 4.0 0.00 0.00 0.00 50 1020.5
20260504080503 56 193 2.0 4.0 0.00 0.00 0.00 51 1020.5
20260504050507 36 52 1.0 2.0 0.00 0.00 0.00 76 1021.2
20260504050007 36 42 1.0 3.0 0.00 0.00 0.00 76 1021.2
20260504045507 36 43 1.0 4.0 0.00 0.00 0.00 77 1021.2
20260504045007 36 49 2.0 4.0 0.00 0.00 0.00 77 1021.1
20260504044507 35 97 1.0 3.0 0.00 0.00 0.00 78 1021.2
20260504044007 35 138 1.0 2.0 0.00 0.00 0.00 78 1021.2
20260504043507 35 130 0.0 2.0 0.00 0.00 0.00 78 1021.3
20260504043028 34 360 0.0 1.0 0.00 0.00 0.00 78 1021.1
20260504042528 34 5 0.0 2.0 0.00 0.00 0.00 78 1021.2
20260504042007 34 25 1.0 2.0 0.00 0.00 0.00 77 1021.2
20260504041507 34 33 1.0 2.0 0.00 0.00 0.00 77 1021.2
20260504041007 34 28 1.0 3.0 0.00 0.00 0.00 77 1021.1
20260504040529 34 27 2.0 3.0 0.00 0.00 0.00 77 1021.1
20260504040007 33 37 1.0 3.0 0.00 0.00 0.00 77 1021.0
20260504035528 33 52 0.0 2.0 0.00 0.00 0.00 78 1021.1
20260504035007 33 45 0.0 2.0 0.00 0.00 0.00 77 1021.0
20260504034508 33 45 0.0 1.0 0.00 0.00 0.00 77 1020.9
20260504034007 33 45 0.0 1.0 0.00 0.00 0.00 77 1020.9
20260504033507 33 0 0.0 0.0 0.00 0.00 0.00 76 1020.8
20260504033007 33 0 0.0 0.0 0.00 0.00 0.00 76 1020.8
20260504032528 33 0 0.0 0.0 0.00 0.00 0.00 77 1020.9
20260504032007 34 0 0.0 0.0 0.00 0.00 0.00 77 1020.8
20260504031528 34 45 0.0 1.0 0.00 0.00 0.00 77 1020.8
20260504031006 34 45 0.0 2.0 0.00 0.00 0.00 77 1020.9
20260504030507 34 45 0.0 2.0 0.00 0.00 0.00 77 1021.0
20260504030008 34 45 0.0 2.0 0.00 0.00 0.00 77 1020.9
20260504025507 34 25 1.0 3.0 0.00 0.00 0.00 76 1020.8
20260504025007 34 4 0.0 3.0 0.00 0.00 0.00 76 1020.8
20260504024507 34 24 0.0 2.0 0.00 0.00 0.00 76 1020.8
20260504024006 34 42 0.0 2.0 0.00 0.00 0.00 76 1020.8
20260504023506 35 55 0.0 2.0 0.00 0.00 0.00 76 1020.8
20260504023007 35 62 0.0 2.0 0.00 0.00 0.00 75 1020.8
20260504022506 35 67 1.0 2.0 0.00 0.00 0.00 75 1020.8
20260504022006 35 62 1.0 4.0 0.00 0.00 0.00 75 1020.8
20260504021506 35 38 1.0 4.0 0.00 0.00 0.00 75 1020.9
20260504021006 35 359 0.0 2.0 0.00 0.00 0.00 75 1020.8
20260504020506 35 358 0.0 2.0 0.00 0.00 0.00 75 1020.8
20260504020007 35 349 0.0 2.0 0.00 0.00 0.00 75 1020.9
20260504015507 35 348 0.0 1.0 0.00 0.00 0.00 74 1020.8
20260504015006 35 10 0.0 2.0 0.00 0.00 0.00 74 1020.8
20260504014506 35 16 0.0 2.0 0.00 0.00 0.00 74 1020.8
20260504014007 36 24 0.0 2.0 0.00 0.00 0.00 74 1020.7
20260504013507 36 38 0.0 2.0 0.00 0.00 0.00 74 1020.7
20260504013006 36 42 0.0 2.0 0.00 0.00 0.00 74 1020.7
20260504012527 36 53 0.0 2.0 0.00 0.00 0.00 74 1020.7
20260504012006 36 90 0.0 1.0 0.00 0.00 0.00 74 1020.8
20260504011507 36 90 0.0 1.0 0.00 0.00 0.00 73 1020.8
20260504011028 36 90 0.0 2.0 0.00 0.00 0.00 73 1020.7
20260504010506 37 90 0.0 2.0 0.00 0.00 0.00 73 1020.8
20260504010007 37 90 0.0 1.0 0.00 0.00 0.00 73 1020.6
20260504005527 37 90 0.0 1.0 0.00 0.00 0.00 73 1020.6
20260504005006 37 0 0.0 0.0 0.00 0.00 0.00 72 1020.7
20260504004506 37 63 0.0 2.0 0.00 0.00 0.00 72 1020.7
20260504004028 37 69 0.0 2.0 0.00 0.00 0.00 72 1020.8
20260504003507 38 55 0.0 2.0 0.00 0.00 0.00 72 1020.7
20260504003006 38 13 0.0 2.0 0.00 0.00 0.00 72 1020.6
20260504002506 38 10 0.0 2.0 0.00 0.00 0.00 72 1020.8
20260504002006 38 26 0.0 2.0 0.00 0.00 0.00 72 1020.8
20260504001527 38 45 0.0 1.0 0.00 0.00 0.00 72 1020.8
20260504001006 38 45 0.0 1.0 0.00 0.00 0.00 72 1020.8
20260504000506 38 45 0.0 1.0 0.00 0.00 0.00 72 1020.8
20260504000006 38 45 0.0 1.0 0.00 0.00 0.00 72 1020.8
20260503235506 39 45 0.0 2.0 0.00 0.00 0.00 71 1020.8
20260503235027 39 45 0.0 2.0 0.00 0.00 0.00 71 1020.9
20260503234506 39 60 0.0 3.0 0.00 0.00 0.00 71 1021.0
20260503234006 39 71 0.0 3.0 0.00 0.00 0.00 72 1021.0
20260503233527 39 83 0.0 2.0 0.00 0.00 0.00 71 1020.9
20260503233027 39 80 0.0 2.0 0.00 0.00 0.00 71 1021.0
20260503232506 40 45 0.0 1.0 0.00 0.00 0.00 71 1021.0
20260503232006 40 63 0.0 2.0 0.00 0.00 0.00 70 1021.0
20260503231506 40 63 0.0 2.0 0.00 0.00 0.00 70 1020.9
20260503231006 40 90 0.0 1.0 0.00 0.00 0.00 70 1020.9
20260503230506 41 90 0.0 1.0 0.00 0.00 0.00 70 1020.9
20260503230006 41 90 0.0 2.0 0.00 0.00 0.00 70 1020.9
20260503225506 41 90 1.0 2.0 0.00 0.00 0.00 70 1020.9
20260503225006 41 84 0.0 2.0 0.00 0.00 0.00 69 1020.9
20260503224506 42 60 0.0 2.0 0.00 0.00 0.00 68 1021.0
20260503224006 42 360 0.0 1.0 0.00 0.00 0.00 68 1020.8
20260503223506 42 5 0.0 2.0 0.00 0.00 0.00 68 1020.8
20260503223006 42 4 0.0 2.0 0.00 0.00 0.00 69 1021.0
20260503222506 42 360 0.0 2.0 0.00 0.00 0.00 69 1020.9
20260503222006 42 178 1.0 2.0 0.00 0.00 0.00 69 1020.9
20260503221506 42 160 1.0 2.0 0.00 0.00 0.00 68 1020.9
20260503221006 43 72 1.0 3.0 0.00 0.00 0.00 67 1020.9
20260503220506 43 36 1.0 3.0 0.00 0.00 0.00 66 1020.8
20260503220006 43 45 1.0 3.0 0.00 0.00 0.00 67 1020.9
20260503215505 43 167 0.0 2.0 0.00 0.00 0.00 67 1021.0
20260503215027 43 180 0.0 2.0 0.00 0.00 0.00 67 1020.9
20260503214506 44 180 0.0 2.0 0.00 0.00 0.00 62 1020.7
20260503214027 44 180 0.0 2.0 0.00 0.00 0.00 62 1020.8
20260503213526 44 180 0.0 2.0 0.00 0.00 0.00 62 1020.8
20260503213006 44 180 0.0 2.0 0.00 0.00 0.00 62 1020.8
20260503212506 45 180 0.0 2.0 0.00 0.00 0.00 62 1020.6
20260503212006 45 180 0.0 2.0 0.00 0.00 0.00 61 1020.6
20260503211506 45 225 0.0 1.0 0.00 0.00 0.00 61 1020.7
20260503211006 45 225 0.0 2.0 0.00 0.00 0.00 61 1020.7
20260503210505 46 225 0.0 2.0 0.00 0.00 0.00 61 1020.6
20260503210007 46 225 1.0 2.0 0.00 0.00 0.00 61 1020.6
20260503205506 46 225 0.0 2.0 0.00 0.00 0.00 60 1020.6
20260503205005 46 197 0.0 2.0 0.00 0.00 0.00 60 1020.5
20260503204505 47 180 0.0 2.0 0.00 0.00 0.00 60 1020.6
20260503204006 47 180 0.0 1.0 0.00 0.00 0.00 59 1020.5
20260503203506 47 180 0.0 2.0 0.00 0.00 0.00 59 1020.5
20260503203006 47 182 1.0 2.0 0.00 0.00 0.00 58 1020.5
20260503202505 48 183 1.0 2.0 0.00 0.00 0.00 58 1020.6
20260503202006 48 342 0.0 2.0 0.00 0.00 0.00 56 1020.4
20260503201506 49 275 1.0 3.0 0.00 0.00 0.00 56 1020.3
20260503201006 49 207 1.0 3.0 0.00 0.00 0.00 56 1020.3
20260503200505 49 143 0.0 2.0 0.00 0.00 0.00 55 1020.4
20260503200005 49 17 0.0 2.0 0.00 0.00 0.00 54 1020.3
20260503195526 50 135 0.0 1.0 0.00 0.00 0.00 53 1020.3
20260503195005 51 213 0.0 2.0 0.00 0.00 0.00 53 1020.2
20260503194505 51 213 0.0 2.0 0.00 0.00 0.00 53 1020.3
20260503194005 51 180 0.0 1.0 0.00 0.00 0.00 52 1020.2
20260503193506 52 180 0.0 1.0 0.00 0.00 0.00 51 1020.3
20260503193005 52 172 1.0 2.0 0.00 0.00 0.00 51 1020.1
20260503192505 53 172 1.0 2.0 0.00 0.00 0.00 46 1020.2
20260503192026 54 135 0.0 2.0 0.00 0.00 0.00 45 1020.1
20260503191505 54 95 1.0 2.0 0.00 0.00 0.00 44 1020.0
20260503191005 54 44 2.0 4.0 0.00 0.00 0.00 42 1020.1
20260503190505 55 34 1.0 4.0 0.00 0.00 0.00 42 1020.0
20260503190005 55 34 0.0 2.0 0.00 0.00 0.00 41 1019.9
20260503185505 56 37 0.0 2.0 0.00 0.00 0.00 41 1019.9
20260503185005 56 180 0.0 1.0 0.00 0.00 0.00 41 1019.8
20260503184526 57 180 0.0 2.0 0.00 0.00 0.00 41 1019.8
20260503184005 57 180 0.0 2.0 0.00 0.00 0.00 40 1019.8
20260503183505 58 0 0.0 0.0 0.00 0.00 0.00 40 1019.7
20260503183005 59 202 0.0 1.0 0.00 0.00 0.00 39 1019.6
20260503182505 59 206 0.0 2.0 0.00 0.00 0.00 38 1019.5
20260503182006 60 204 0.0 2.0 0.00 0.00 0.00 37 1019.5
20260503181506 60 67 0.0 2.0 0.00 0.00 0.00 34 1019.4
20260503181005 61 67 0.0 2.0 0.00 0.00 0.00 33 1019.3
20260503180526 61 130 0.0 2.0 0.00 0.00 0.00 33 1019.4